When you browse on this site, cookies collect data to enhance your experience and personalize the content and advertising you see.
Visit our Privacy Policy to learn more. By continuing to use the site, you agree to this use of cookies and data.
  • In Czech Republic
  • List of Countries
  • For 7 days
  • Water Temperature
  • Weather Map
  • Weather Widgets
  • user-avatar
    Login

    Hourly Weather Pokrovsk

    Today, 27 May, Wednesday

    Time Temperature Precipitation Wind Pressure Humidity
    00:00 +17°C° 0.1 mm 2 mps 735 mmHg 62%
    01:00 +17°C° 0 mm 2 mps 735 mmHg 65%
    02:00 +16°C° 0 mm 2 mps 734 mmHg 68%
    03:00 +15°C° 0 mm 2 mps 734 mmHg 72%
    04:00 +16°C° 0.1 mm 2 mps 734 mmHg 72%
    05:00 +18°C° 0.1 mm 1 mps 734 mmHg 71%
    06:00 +18°C° 0.1 mm 1 mps 734 mmHg 71%
    07:00 +21°C° 0 mm 1 mps 733 mmHg 63%
    08:00 +23°C° 0 mm 2 mps 733 mmHg 55%
    09:00 +25°C° 0 mm 2 mps 733 mmHg 45%
    10:00 +26°C° 0 mm 2 mps 733 mmHg 40%
    11:00 +28°C° 0 mm 3 mps 732 mmHg 35%
    12:00 +29°C° 0 mm 3 mps 732 mmHg 30%
    13:00 +29°C° 0 mm 3 mps 732 mmHg 30%
    14:00 +29°C° 0 mm 3 mps 731 mmHg 30%
    15:00 +29°C° 0 mm 4 mps 731 mmHg 28%
    16:00 +29°C° 0 mm 3 mps 731 mmHg 30%
    17:00 +28°C° 0 mm 2 mps 731 mmHg 33%
    18:00 +28°C° 0 mm 2 mps 731 mmHg 35%
    19:00 +26°C° 0 mm 1 mps 731 mmHg 41%
    20:00 +24°C° 0 mm 1 mps 730 mmHg 47%
    21:00 +22°C° 0 mm 1 mps 730 mmHg 53%
    22:00 +20°C° 0 mm 2 mps 730 mmHg 54%
    23:00 +19°C° 0 mm 2 mps 729 mmHg 55%

    Tomorrow, 28 May, Thursday

    Time Temperature Precipitation Wind Pressure Humidity
    00:00 +18°C° 0 mm 2 mps 729 mmHg 56%
    01:00 +18°C° 0 mm 3 mps 729 mmHg 55%
    02:00 +19°C° 0 mm 3 mps 729 mmHg 53%
    03:00 +19°C° 0 mm 4 mps 729 mmHg 51%
    04:00 +18°C° 0 mm 4 mps 729 mmHg 55%
    05:00 +18°C° 0 mm 3 mps 729 mmHg 59%
    06:00 +18°C° 0 mm 3 mps 729 mmHg 63%
    07:00 +19°C° 0 mm 4 mps 730 mmHg 60%
    08:00 +19°C° 0 mm 4 mps 730 mmHg 58%
    09:00 +20°C° 0 mm 4 mps 731 mmHg 56%
    10:00 +19°C° 0.1 mm 4 mps 731 mmHg 60%
    11:00 +16°C° 0.1 mm 5 mps 731 mmHg 65%
    12:00 +15°C° 0.1 mm 5 mps 732 mmHg 70%
    13:00 +15°C° 0 mm 5 mps 732 mmHg 65%
    14:00 +15°C° 0 mm 5 mps 733 mmHg 60%
    15:00 +15°C° 0 mm 5 mps 734 mmHg 56%
    16:00 +15°C° 0 mm 5 mps 734 mmHg 56%
    17:00 +14°C° 0 mm 6 mps 735 mmHg 55%
    18:00 +14°C° 0 mm 6 mps 735 mmHg 55%
    19:00 +12°C° 0 mm 5 mps 736 mmHg 58%
    20:00 +9°C° 0 mm 5 mps 736 mmHg 62%
    21:00 +8°C° 0 mm 4 mps 737 mmHg 65%
    22:00 +7°C° 0 mm 4 mps 738 mmHg 65%
    23:00 +6°C° 0 mm 4 mps 738 mmHg 65%

    Day after tomorrow, 29 May, Friday

    Time Temperature Precipitation Wind Pressure Humidity
    00:00 +5°C° 0 mm 5 mps 739 mmHg 65%
    01:00 +5°C° 0 mm 4 mps 739 mmHg 64%
    02:00 +5°C° 0 mm 4 mps 740 mmHg 64%
    03:00 +4°C° 0 mm 3 mps 740 mmHg 63%
    04:00 +4°C° 0 mm 4 mps 740 mmHg 64%
    05:00 +4°C° 0 mm 4 mps 741 mmHg 66%
    06:00 +4°C° 0 mm 4 mps 741 mmHg 68%
    07:00 +5°C° 0 mm 5 mps 741 mmHg 62%
    08:00 +5°C° 0 mm 5 mps 742 mmHg 57%
    09:00 +6°C° 0 mm 5 mps 742 mmHg 52%
    10:00 +7°C° 0 mm 5 mps 742 mmHg 47%
    11:00 +8°C° 0 mm 5 mps 742 mmHg 43%
    12:00 +9°C° 0 mm 5 mps 742 mmHg 39%
    13:00 +9°C° 0 mm 5 mps 742 mmHg 37%
    14:00 +10°C° 0 mm 5 mps 742 mmHg 36%
    15:00 +10°C° 0 mm 5 mps 743 mmHg 34%
    16:00 +10°C° 0 mm 5 mps 743 mmHg 35%
    17:00 +10°C° 0 mm 5 mps 743 mmHg 35%
    18:00 +11°C° 0 mm 4 mps 743 mmHg 36%
    19:00 +8°C° 0 mm 4 mps 743 mmHg 41%
    20:00 +8°C° 0 mm 3 mps 744 mmHg 46%
    21:00 +7°C° 0 mm 2 mps 744 mmHg 51%
    22:00 +6°C° 0 mm 2 mps 744 mmHg 55%
    23:00 +4°C° 0 mm 2 mps 744 mmHg 58%

    30 May, Saturday

    Time Temperature Precipitation Wind Pressure Humidity
    00:00 +3°C° 0 mm 2 mps 745 mmHg 62%
    01:00 +3°C° 0 mm 2 mps 745 mmHg 64%
    02:00 +2°C° 0 mm 2 mps 745 mmHg 67%
    03:00 +2°C° 0 mm 2 mps 745 mmHg 69%
    04:00 +3°C° 0 mm 2 mps 745 mmHg 65%
    05:00 +4°C° 0 mm 2 mps 745 mmHg 60%
    06:00 +5°C° 0 mm 3 mps 745 mmHg 56%
    07:00 +7°C° 0 mm 3 mps 745 mmHg 50%
    08:00 +9°C° 0 mm 3 mps 745 mmHg 45%
    09:00 +11°C° 0 mm 4 mps 745 mmHg 39%
    10:00 +12°C° 0 mm 4 mps 745 mmHg 37%
    11:00 +12°C° 0 mm 4 mps 745 mmHg 35%
    12:00 +13°C° 0 mm 4 mps 744 mmHg 33%
    13:00 +14°C° 0 mm 4 mps 744 mmHg 33%
    14:00 +14°C° 0 mm 4 mps 744 mmHg 32%
    15:00 +14°C° 0 mm 3 mps 744 mmHg 32%
    16:00 +14°C° 0 mm 3 mps 744 mmHg 35%
    17:00 +14°C° 0 mm 3 mps 744 mmHg 38%
    18:00 +13°C° 0 mm 3 mps 744 mmHg 42%
    19:00 +12°C° 0 mm 2 mps 744 mmHg 51%
    20:00 +10°C° 0 mm 2 mps 744 mmHg 61%
    21:00 +9°C° 0 mm 1 mps 744 mmHg 70%
    22:00 +8°C° 0 mm 1 mps 745 mmHg 73%
    23:00 +7°C° 0 mm 1 mps 745 mmHg 76%

    31 May, Sunday

    Time Temperature Precipitation Wind Pressure Humidity
    00:00 +6°C° 0 mm 1 mps 745 mmHg 79%
    01:00 +5°C° 0 mm 1 mps 745 mmHg 81%
    02:00 +5°C° 0 mm 1 mps 745 mmHg 82%
    03:00 +4°C° 0 mm 1 mps 745 mmHg 84%
    04:00 +6°C° 0 mm 1 mps 745 mmHg 78%
    05:00 +8°C° 0 mm 1 mps 745 mmHg 71%
    06:00 +8°C° 0 mm 0 mps 745 mmHg 65%
    07:00 +11°C° 0 mm 0 mps 745 mmHg 57%
    08:00 +13°C° 0 mm 0 mps 745 mmHg 49%
    09:00 +15°C° 0 mm 0 mps 745 mmHg 41%
    10:00 +16°C° 0 mm 0 mps 745 mmHg 40%
    11:00 +18°C° 0 mm 1 mps 744 mmHg 38%
    12:00 +18°C° 0 mm 1 mps 744 mmHg 37%
    13:00 +18°C° 0 mm 1 mps 744 mmHg 36%
    14:00 +19°C° 0 mm 1 mps 744 mmHg 35%
    15:00 +19°C° 0 mm 1 mps 744 mmHg 34%
    16:00 +19°C° 0 mm 1 mps 744 mmHg 35%
    17:00 +19°C° 0 mm 1 mps 744 mmHg 35%
    18:00 +18°C° 0 mm 1 mps 744 mmHg 35%
    19:00 +16°C° 0 mm 1 mps 744 mmHg 42%
    20:00 +14°C° 0 mm 1 mps 744 mmHg 49%
    21:00 +12°C° 0 mm 1 mps 744 mmHg 56%
    22:00 +10°C° 0 mm 1 mps 744 mmHg 59%
    23:00 +8°C° 0 mm 0 mps 745 mmHg 63%

    1 June, Monday

    Time Temperature Precipitation Wind Pressure Humidity
    00:00 +7°C° 0 mm 0 mps 745 mmHg 67%
    01:00 +6°C° 0 mm 0 mps 745 mmHg 69%
    02:00 +6°C° 0 mm 0 mps 745 mmHg 72%
    03:00 +5°C° 0 mm 0 mps 745 mmHg 75%
    04:00 +7°C° 0 mm 0 mps 745 mmHg 69%
    05:00 +9°C° 0 mm 0 mps 745 mmHg 64%
    06:00 +11°C° 0 mm 0 mps 745 mmHg 58%
    07:00 +13°C° 0 mm 0 mps 745 mmHg 51%
    08:00 +16°C° 0 mm 1 mps 744 mmHg 44%
    09:00 +19°C° 0 mm 1 mps 744 mmHg 38%
    10:00 +18°C° 0 mm 2 mps 744 mmHg 36%
    11:00 +19°C° 0 mm 3 mps 743 mmHg 34%
    12:00 +20°C° 0 mm 3 mps 743 mmHg 32%
    13:00 +20°C° 0 mm 3 mps 742 mmHg 31%
    14:00 +20°C° 0 mm 3 mps 742 mmHg 30%
    15:00 +21°C° 0 mm 3 mps 742 mmHg 29%
    16:00 +21°C° 0 mm 3 mps 742 mmHg 30%
    17:00 +20°C° 0 mm 3 mps 742 mmHg 31%
    18:00 +20°C° 0 mm 3 mps 741 mmHg 32%
    19:00 +18°C° 0 mm 3 mps 742 mmHg 39%
    20:00 +16°C° 0 mm 2 mps 742 mmHg 46%
    21:00 +14°C° 0 mm 2 mps 742 mmHg 53%
    22:00 +13°C° 0 mm 1 mps 742 mmHg 56%
    23:00 +11°C° 0 mm 1 mps 742 mmHg 58%
    Show more